Flag for U.S.A. Weather past 2 weeks in Binghamton, New York, U.S.A.

Now
51 °F

Clear.


Feels Like: 51 °F
Forecast: 48 / 77 °F
Wind: 3 mph from Northeast

Location: Binghamton Regional Airport

Current Time: Jul 3, 2015 at 4:37:57 AM

Latest Report: Jul 3, 2015 at 3:53 AM


Visibility: 10 mi

Pressure: 29.98 "Hg

Humidity: 86%

Dew point: 47 °F

Location of BinghamtonLocation

Historic Weather in Binghamton — Graph

°F

Binghamton temperature yesterday

Maximum temperature yesterday: 69 °F (at 3:53 PM)
Minimum temperature yesterday: 57 °F (at 4:53 AM)
Average temperature yesterday: 63 °F

Past Weeks' High & Low Weather Summary

 TemperatureHumidityPressure
High80 °F (Jun 23, 2:53 PM)100% (Jun 19, 1:00 AM)30.10 "Hg (Jun 19, 1:00 AM)
Low52 °F (Jun 20, 4:53 AM)42% (Jun 24, 6:53 PM)29.67 "Hg (Jun 28, 2:53 PM)
Average64 °F81%29.93 "Hg
* Reported Jun 18 2:53 AM — Jul 3 2:53 AM, Binghamton, Weather by CustomWeather, © 2015

Note: Actual official high and low records may vary slightly from our data, if they occured in-between our weather recording intervals... More about our weather records

Advertising

Binghamton weather history for previous 24 hours

 ConditionsComfort  
Time TempWeatherWind HumidityBarometerVisibility
2:53 AM
Fri, Jul 3
52 °FClear.No wind80%29.98 "Hg10 mi
1:53 AM53 °FClear.6 mph77%29.98 "Hg10 mi
12:53 AM54 °FClear.7 mph77%29.97 "Hg10 mi
11:53 PM
Thu, Jul 2
57 °FClear.6 mph69%29.96 "Hg10 mi
10:53 PM58 °FClear.7 mph72%29.96 "Hg10 mi
9:53 PM60 °FClear.10 mph69%29.96 "Hg10 mi
8:53 PM61 °FSunny.10 mph72%29.94 "Hg10 mi
7:53 PM66 °FSunny.9 mph63%29.93 "Hg10 mi
6:53 PM67 °FSunny.8 mph59%29.93 "Hg10 mi
5:53 PM69 °FPassing clouds.9 mph55%29.92 "Hg10 mi
4:53 PM69 °FBroken clouds.9 mph57%29.92 "Hg10 mi
3:53 PM69 °FScattered clouds.3 mph53%29.93 "Hg10 mi
2:53 PM68 °FPartly sunny.7 mph57%29.94 "Hg10 mi
1:53 PM68 °FPartly sunny.7 mph61%29.94 "Hg10 mi
12:53 PM68 °FPartly sunny.6 mph61%29.93 "Hg10 mi
11:53 AM67 °FCloudy.7 mph63%29.94 "Hg10 mi
10:53 AM67 °FBroken clouds.9 mph63%29.95 "Hg10 mi
9:53 AM65 °FScattered clouds.7 mph73%29.94 "Hg10 mi
8:53 AM62 °FPartly sunny.6 mph80%29.94 "Hg10 mi
7:53 AM60 °FFog.3 mph93%29.93 "Hg6 mi
6:53 AM57 °FFog.3 mph100%29.93 "Hg1 mi
5:53 AM57 °FFog.No wind96%29.91 "Hg5 mi
4:53 AM57 °FPassing clouds.5 mph96%29.90 "Hg9 mi
Weather by CustomWeather, © 2015

See weather overviewHow to use our weather pages